カタログに戻る

STARLINK-34523

運用中通信VLEO
NORAD 64475·PAYLOAD·🇺🇸 United States

打ち上げ Jun 23, 2025 から Cape Canaveral Space Force Station

Loading…

次のパス (今後24時間)

TLE

最新Source: CelesTrak SupGP

元期: Sep 14, 2026, 20:41 UTC

1 64475C 25133D   26257.86229167 -.00012344  00000+0 -36490-3 0  2570
2 64475  53.1590 312.4233 0001143  82.0007 210.3852 15.34379698    12

AllMySatでSTARLINK-34523をリアルタイム追跡

Download on the App Store